• en Suisse
  • Liste des pays
  • À 7 jours
  • Température de l'eau
  • Carte satellitaire
  • Carte météo
  • Widgets météo
  • user-avatar
    Se connecter

    Météo par heure à Serdytsya

    Ce jour, 19 Juin, Mardi

    Heure Température Précipitation Vent Pression Humidité
    00:00 +19°C° 0 mm 1 m/s 737 mmHg 90%
    01:00 +18°C° 0 mm 1 m/s 737 mmHg 91%
    02:00 +18°C° 0 mm 1 m/s 737 mmHg 91%
    03:00 +18°C° 0 mm 1 m/s 737 mmHg 92%
    04:00 +18°C° 0 mm 1 m/s 738 mmHg 92%
    05:00 +18°C° 0 mm 1 m/s 738 mmHg 93%
    06:00 +19°C° 0 mm 1 m/s 738 mmHg 90%
    07:00 +21°C° 0 mm 1 m/s 738 mmHg 87%
    08:00 +22°C° 0 mm 1 m/s 738 mmHg 84%
    09:00 +24°C° 0 mm 1 m/s 739 mmHg 79%
    10:00 +25°C° 0 mm 2 m/s 739 mmHg 74%
    11:00 +26°C° 0 mm 2 m/s 739 mmHg 69%
    12:00 +27°C° 0,1 mm 2 m/s 739 mmHg 67%
    13:00 +27°C° 0,1 mm 2 m/s 739 mmHg 66%
    14:00 +28°C° 0,1 mm 2 m/s 739 mmHg 64%
    15:00 +28°C° 0,2 mm 2 m/s 739 mmHg 65%
    16:00 +27°C° 0,2 mm 2 m/s 739 mmHg 66%
    17:00 +27°C° 0,2 mm 2 m/s 739 mmHg 68%
    18:00 +26°C° 0,3 mm 2 m/s 739 mmHg 73%
    19:00 +24°C° 0,3 mm 2 m/s 739 mmHg 78%
    20:00 +23°C° 0,3 mm 2 m/s 739 mmHg 84%
    21:00 +21°C° 0 mm 2 m/s 739 mmHg 85%
    22:00 +21°C° 0 mm 1 m/s 740 mmHg 86%
    23:00 +20°C° 0 mm 1 m/s 740 mmHg 87%

    Demain, 20 Juin, Mercredi

    Heure Température Précipitation Vent Pression Humidité
    00:00 +19°C° 0 mm 1 m/s 740 mmHg 88%
    01:00 +19°C° 0 mm 1 m/s 740 mmHg 88%
    02:00 +18°C° 0 mm 1 m/s 740 mmHg 89%
    03:00 +18°C° 0 mm 1 m/s 740 mmHg 90%
    04:00 +18°C° 0 mm 1 m/s 740 mmHg 90%
    05:00 +16°C° 0 mm 1 m/s 740 mmHg 91%
    06:00 +19°C° 0 mm 1 m/s 741 mmHg 87%
    07:00 +20°C° 0 mm 1 m/s 741 mmHg 83%
    08:00 +22°C° 0 mm 1 m/s 741 mmHg 78%
    09:00 +23°C° 0 mm 1 m/s 741 mmHg 74%
    10:00 +24°C° 0 mm 1 m/s 741 mmHg 69%
    11:00 +26°C° 0 mm 1 m/s 741 mmHg 65%
    12:00 +26°C° 0,1 mm 1 m/s 741 mmHg 63%
    13:00 +27°C° 0,1 mm 1 m/s 741 mmHg 62%
    14:00 +27°C° 0,1 mm 1 m/s 741 mmHg 60%
    15:00 +27°C° 0,1 mm 1 m/s 740 mmHg 62%
    16:00 +27°C° 0,1 mm 1 m/s 740 mmHg 64%
    17:00 +27°C° 0,1 mm 1 m/s 740 mmHg 66%
    18:00 +25°C° 0 mm 1 m/s 740 mmHg 71%
    19:00 +24°C° 0 mm 1 m/s 740 mmHg 77%
    20:00 +23°C° 0 mm 1 m/s 740 mmHg 82%
    21:00 +22°C° 0 mm 1 m/s 740 mmHg 84%
    22:00 +21°C° 0 mm 1 m/s 740 mmHg 86%
    23:00 +18°C° 0 mm 0 m/s 740 mmHg 88%

    Après-demain, 21 Juin, Jeudi

    Heure Température Précipitation Vent Pression Humidité
    00:00 +18°C° 0 mm 0 m/s 740 mmHg 89%
    01:00 +17°C° 0 mm 0 m/s 740 mmHg 90%
    02:00 +17°C° 0 mm 0 m/s 740 mmHg 90%
    03:00 +17°C° 0 mm 0 m/s 739 mmHg 91%
    04:00 +17°C° 0 mm 0 m/s 739 mmHg 91%
    05:00 +17°C° 0 mm 0 m/s 739 mmHg 92%
    06:00 +20°C° 0 mm 1 m/s 739 mmHg 88%
    07:00 +22°C° 0 mm 1 m/s 739 mmHg 84%
    08:00 +23°C° 0 mm 2 m/s 739 mmHg 80%
    09:00 +25°C° 0,1 mm 2 m/s 738 mmHg 77%
    10:00 +26°C° 0,1 mm 2 m/s 738 mmHg 73%
    11:00 +27°C° 0,1 mm 3 m/s 738 mmHg 70%
    12:00 +27°C° 0,2 mm 3 m/s 737 mmHg 69%
    13:00 +28°C° 0,2 mm 3 m/s 736 mmHg 69%
    14:00 +28°C° 0,2 mm 3 m/s 736 mmHg 68%
    15:00 +28°C° 0,4 mm 3 m/s 735 mmHg 70%
    16:00 +28°C° 0,4 mm 3 m/s 735 mmHg 73%
    17:00 +28°C° 0,4 mm 3 m/s 734 mmHg 75%
    18:00 +26°C° 0,5 mm 3 m/s 734 mmHg 79%
    19:00 +25°C° 0,5 mm 3 m/s 733 mmHg 83%
    20:00 +24°C° 0,5 mm 3 m/s 733 mmHg 87%
    21:00 +22°C° 0 mm 3 m/s 733 mmHg 88%
    22:00 +21°C° 0 mm 3 m/s 732 mmHg 89%
    23:00 +21°C° 0 mm 3 m/s 732 mmHg 90%

    22 Juin, Vendredi

    Heure Température Précipitation Vent Pression Humidité
    00:00 +21°C° 0,1 mm 3 m/s 732 mmHg 89%
    01:00 +20°C° 0,1 mm 3 m/s 731 mmHg 88%
    02:00 +20°C° 0,1 mm 4 m/s 731 mmHg 88%
    03:00 +20°C° 0,4 mm 4 m/s 731 mmHg 90%
    04:00 +20°C° 0,4 mm 4 m/s 731 mmHg 92%
    05:00 +19°C° 0,4 mm 4 m/s 731 mmHg 93%
    06:00 +17°C° 0,8 mm 5 m/s 731 mmHg 93%
    07:00 +16°C° 0,8 mm 6 m/s 732 mmHg 93%
    08:00 +14°C° 0,8 mm 7 m/s 732 mmHg 93%
    09:00 +13°C° 0,7 mm 6 m/s 733 mmHg 92%
    10:00 +12°C° 0,7 mm 5 m/s 733 mmHg 92%
    11:00 +10°C° 0,7 mm 5 m/s 734 mmHg 92%
    12:00 +12°C° 0,2 mm 4 m/s 734 mmHg 87%
    13:00 +13°C° 0,2 mm 4 m/s 734 mmHg 82%
    14:00 +14°C° 0,2 mm 3 m/s 734 mmHg 77%
    15:00 +14°C° 0,1 mm 3 m/s 734 mmHg 76%
    16:00 +16°C° 0,1 mm 3 m/s 734 mmHg 76%
    17:00 +16°C° 0,1 mm 2 m/s 735 mmHg 75%
    18:00 +15°C° 0,1 mm 2 m/s 735 mmHg 76%
    19:00 +15°C° 0,1 mm 2 m/s 735 mmHg 78%
    20:00 +13°C° 0,1 mm 3 m/s 735 mmHg 79%
    21:00 +13°C° 0 mm 3 m/s 735 mmHg 77%
    22:00 +12°C° 0 mm 3 m/s 735 mmHg 75%
    23:00 +12°C° 0 mm 3 m/s 736 mmHg 73%

    23 Juin, Samedi

    Heure Température Précipitation Vent Pression Humidité
    00:00 +11°C° 0 mm 3 m/s 736 mmHg 74%
    01:00 +11°C° 0 mm 3 m/s 736 mmHg 75%
    02:00 +10°C° 0 mm 3 m/s 736 mmHg 75%
    03:00 +10°C° 0 mm 3 m/s 736 mmHg 78%
    04:00 +9°C° 0 mm 3 m/s 736 mmHg 81%
    05:00 +8°C° 0 mm 3 m/s 736 mmHg 84%
    06:00 +10°C° 0 mm 4 m/s 737 mmHg 81%
    07:00 +11°C° 0 mm 4 m/s 737 mmHg 79%
    08:00 +12°C° 0 mm 5 m/s 737 mmHg 76%
    09:00 +14°C° 0 mm 5 m/s 737 mmHg 71%
    10:00 +15°C° 0 mm 5 m/s 737 mmHg 67%
    11:00 +17°C° 0 mm 4 m/s 737 mmHg 62%
    12:00 +16°C° 0,3 mm 5 m/s 736 mmHg 64%
    13:00 +16°C° 0,3 mm 5 m/s 736 mmHg 66%
    14:00 +16°C° 0,3 mm 5 m/s 736 mmHg 68%
    15:00 +16°C° 0,1 mm 5 m/s 736 mmHg 69%
    16:00 +16°C° 0,1 mm 5 m/s 736 mmHg 70%
    17:00 +15°C° 0,1 mm 4 m/s 736 mmHg 71%
    18:00 +15°C° 0 mm 4 m/s 737 mmHg 75%
    19:00 +14°C° 0 mm 3 m/s 737 mmHg 78%
    20:00 +13°C° 0 mm 3 m/s 737 mmHg 82%
    21:00 +11°C° 0 mm 3 m/s 737 mmHg 84%
    22:00 +10°C° 0 mm 3 m/s 737 mmHg 86%
    23:00 +9°C° 0 mm 2 m/s 737 mmHg 88%

    24 Juin, Dimanche

    Heure Température Précipitation Vent Pression Humidité
    00:00 +9°C° 0 mm 2 m/s 737 mmHg 87%
    01:00 +9°C° 0 mm 2 m/s 738 mmHg 86%
    02:00 +9°C° 0 mm 2 m/s 738 mmHg 85%
    03:00 +8°C° 0 mm 2 m/s 738 mmHg 86%
    04:00 +8°C° 0 mm 2 m/s 738 mmHg 87%
    05:00 +8°C° 0 mm 2 m/s 738 mmHg 89%
    06:00 +9°C° 0 mm 2 m/s 738 mmHg 85%
    07:00 +11°C° 0 mm 3 m/s 738 mmHg 81%
    08:00 +12°C° 0 mm 3 m/s 738 mmHg 77%
    09:00 +13°C° 0 mm 3 m/s 738 mmHg 73%
    10:00 +16°C° 0 mm 2 m/s 738 mmHg 68%
    11:00 +17°C° 0 mm 2 m/s 738 mmHg 64%
    12:00 +17°C° 0,1 mm 2 m/s 738 mmHg 63%
    13:00 +18°C° 0,1 mm 2 m/s 738 mmHg 61%
    14:00 +19°C° 0,1 mm 2 m/s 738 mmHg 60%
    15:00 +19°C° 0,1 mm 2 m/s 738 mmHg 60%
    16:00 +19°C° 0,1 mm 2 m/s 738 mmHg 61%
    17:00 +19°C° 0,1 mm 2 m/s 738 mmHg 61%
    18:00 +19°C° 0,1 mm 1 m/s 738 mmHg 67%
    19:00 +16°C° 0,1 mm 1 m/s 738 mmHg 73%
    20:00 +15°C° 0,1 mm 1 m/s 738 mmHg 79%
    21:00 +14°C° 0,2 mm 1 m/s 738 mmHg 81%
    22:00 +13°C° 0,2 mm 1 m/s 738 mmHg 83%
    23:00 +12°C° 0,2 mm 1 m/s 738 mmHg 85%
    Voir plus